Location: Mahannah Oil Field
(37.4664°N, 96.6003°W)
Time: 14:02:53
(UTC+00:00)

A-11 Canister half - All Passes

Search period start: 25 January 2021 00:00
Search period end: 04 February 2021 00:00
Orbit: 1517 x 1683 km, 47.2° (Epoch: 24 January)

Date Brightness Start Highest point End Pass type
(mag) Time Alt. Az. Time Alt. Az. Time Alt. Az.
25 Jan - 00:48:42 10° SSW 00:57:25 40° SE 01:05:52 10° ENE visible
25 Jan - 02:52:21 10° WSW 03:01:52 76° NNW 03:11:11 10° ENE visible
25 Jan - 04:58:54 10° WNW 05:07:51 47° N 05:16:42 10° ENE visible
25 Jan - 07:05:03 10° WNW 07:14:11 59° NNE 07:23:20 10° E night (unlit)
25 Jan - 09:10:09 10° WNW 09:19:14 63° SW 09:28:27 10° SE visible
25 Jan - 11:17:47 10° W 11:22:47 16° SW 11:27:51 10° SSW visible
26 Jan - 00:26:00 10° SSW 00:34:33 37° SE 00:42:52 10° ENE visible
26 Jan - 02:29:23 10° WSW 02:38:57 79° NNW 02:48:17 10° ENE visible
26 Jan - 04:35:53 10° W 04:44:51 47° N 04:53:43 10° ENE visible
26 Jan - 06:42:06 10° WNW 06:51:13 57° NNE 07:00:20 10° E night (unlit)
26 Jan - 08:47:14 10° WNW 08:56:22 67° SW 09:05:37 10° SE visible
26 Jan - 10:54:28 10° W 10:59:58 17° SW 11:05:34 10° SSW visible
27 Jan - 00:03:18 10° SSW 00:11:42 35° SE 00:19:53 10° ENE visible
27 Jan - 02:06:25 10° WSW 02:16:01 83° NNW 02:25:23 10° ENE visible
27 Jan - 04:12:51 10° W 04:21:52 48° N 04:30:45 10° ENE visible
27 Jan - 06:19:09 10° WNW 06:28:15 55° NNE 06:37:19 10° E night (unlit)
27 Jan - 08:24:18 10° WNW 08:33:29 70° SW 08:42:46 10° SE visible
27 Jan - 10:31:13 10° W 10:37:09 19° SW 10:43:11 10° SSW visible
27 Jan - 23:40:38 10° S 23:48:51 33° SE 23:56:52 10° ENE daylight
28 Jan - 01:43:28 10° WSW 01:53:06 86° NNW 02:02:29 10° ENE visible
28 Jan - 03:49:49 10° W 03:58:53 49° N 04:07:47 10° ENE visible
28 Jan - 05:56:13 10° WNW 06:05:17 54° NNE 06:14:19 10° E visible
28 Jan - 08:01:23 10° WNW 08:10:36 74° SW 08:19:54 10° SE night (unlit)
28 Jan - 10:08:01 10° W 10:14:21 21° SW 10:20:47 10° S visible
28 Jan - 23:17:58 10° S 23:26:01 30° SE 23:33:50 10° ENE daylight
29 Jan - 01:20:31 10° SW 01:30:11 90° NW 01:39:34 10° ENE visible
29 Jan - 03:26:47 10° W 03:35:53 49° N 03:44:50 10° ENE visible
29 Jan - 05:33:15 10° WNW 05:42:19 52° NNE 05:51:19 10° E visible
29 Jan - 07:38:28 10° WNW 07:47:43 78° SW 07:57:01 10° SE night (unlit)
29 Jan - 09:44:51 10° W 09:51:32 23° SW 09:58:18 10° S visible
29 Jan - 22:55:21 10° S 23:03:10 28° SE 23:10:47 10° ENE daylight
30 Jan - 00:57:35 10° SW 01:07:16 87° SSE 01:16:40 10° ENE visible
30 Jan - 03:03:44 10° W 03:12:54 50° NNW 03:21:53 10° ENE visible
30 Jan - 05:10:17 10° WNW 05:19:20 51° NNE 05:28:19 10° E visible
30 Jan - 07:15:33 10° WNW 07:24:50 82° SW 07:34:08 10° SE night (unlit)
30 Jan - 09:21:44 10° WNW 09:28:43 25° SW 09:35:47 10° S night (unlit)
30 Jan - 22:32:46 10° S 22:40:20 26° SE 22:47:43 10° ENE daylight
31 Jan - 00:34:39 10° SW 00:44:22 83° SE 00:53:46 10° ENE visible
31 Jan - 02:40:42 10° W 02:49:55 51° NNW 02:58:56 10° ENE visible
31 Jan - 04:47:18 10° WNW 04:56:22 50° NNE 05:05:18 10° E visible
31 Jan - 06:52:37 10° WNW 07:01:56 86° SW 07:11:14 10° SE night (unlit)
31 Jan - 08:58:38 10° WNW 09:05:54 27° SW 09:13:14 10° S night (unlit)
31 Jan - 22:10:12 10° S 22:17:30 24° SE 22:24:37 10° ENE daylight
01 Feb - 00:11:44 10° SW 00:21:27 79° SE 00:30:52 10° ENE visible
01 Feb - 02:17:39 10° W 02:26:56 53° NNW 02:36:00 10° ENE visible
01 Feb - 04:24:20 10° WNW 04:33:23 49° N 04:42:17 10° E visible
01 Feb - 06:29:42 10° WNW 06:39:03 89° SSW 06:48:21 10° SE night (unlit)
01 Feb - 08:35:33 10° WNW 08:43:05 29° SW 08:50:39 10° S night (unlit)
01 Feb - 21:47:41 10° S 21:54:40 22° SE 22:01:28 10° E daylight
01 Feb - 23:48:49 10° SW 23:58:33 75° SE 00:07:57 10° ENE daylight
02 Feb - 01:54:37 10° W 02:03:57 54° NNW 02:13:03 10° ENE visible
02 Feb - 04:01:21 10° WNW 04:10:24 49° N 04:19:17 10° E visible
02 Feb - 06:06:47 10° WNW 06:16:08 87° NNE 06:25:26 10° ESE visible
02 Feb - 08:12:31 10° WNW 08:20:16 31° SW 08:28:03 10° S night (unlit)
02 Feb - 21:25:12 10° S 21:31:49 21° SE 21:38:17 10° E daylight
02 Feb - 23:25:56 10° SW 23:35:39 72° SE 23:45:02 10° ENE daylight
03 Feb - 01:31:34 10° W 01:40:58 55° NNW 01:50:07 10° ENE visible
03 Feb - 03:38:21 10° WNW 03:47:24 48° N 03:56:17 10° E visible
03 Feb - 05:43:52 10° WNW 05:53:13 83° NNE 06:02:31 10° ESE visible
03 Feb - 07:49:29 10° WNW 07:57:26 33° SW 08:05:24 10° S night (unlit)
03 Feb - 21:02:47 10° SSE 21:08:59 19° SE 21:15:04 10° E daylight
03 Feb - 23:03:02 10° SW 23:12:45 68° SE 23:22:07 10° ENE daylight
